Hourly Data Report for August 13, 2015

All times are specified in Local Standard Time (LST). Add 1 hour to adjust for Daylight Saving Time where and when it is observed.

TORONTO INTL A
ONTARIO

43°40'36.000" N
79°37'50.000" W
173.40 m
6158731
71624
YYZ

Download Data

Hourly Data (August 2015)
Hourly Data Report for August 13, 2015
Temp Definition
°C
Dew Point Temp Definition
°C
Rel Hum Definition
%
Wind Dir Definition
10's deg

Wind Spd Definition
km/h
Visibility Definition
km
Stn Press Definition
kPa
Hmdx Definition


Wind Chill Definition


Weather Definition


TIME
00:00 Legend Double Dagger 14.8 9.4 70 29 12 24.1 99.64     LegendNANA
01:00 Legend Double Dagger 14.8 9.0 68 29 15 24.1 99.63     Clear
02:00 Legend Double Dagger 13.8 8.5 70 29 10 24.1 99.61     LegendNANA
03:00 Legend Double Dagger 13.0 8.5 74 28 9 24.1 99.58     LegendNANA
04:00 Legend Double Dagger 12.5 8.4 76 28 13 24.1 99.61     Clear
05:00 Legend Double Dagger 13.1 8.0 71 29 7 24.1 99.65     LegendNANA
06:00 Legend Double Dagger 14.0 8.2 68 27 10 24.1 99.67     LegendNANA
07:00 Legend Double Dagger 16.9 9.7 62 24 6 24.1 99.69     Mainly Clear
08:00 Legend Double Dagger 19.4 9.4 52 26 11 24.1 99.70     LegendNANA
09:00 Legend Double Dagger 22.0 11.5 51 26 17 24.1 99.71     LegendNANA
10:00 Legend Double Dagger 23.1 12.0 49 26 16 24.1 99.69 25   Mainly Clear
11:00 Legend Double Dagger 23.5 10.7 44 19 16 24.1 99.68 25   LegendNANA
12:00 Legend Double Dagger 24.2 12.7 48 20 21 24.1 99.63 27   LegendNANA
13:00 Legend Double Dagger 25.7 13.4 46 23 18 24.1 99.58 29   Mostly Cloudy
14:00 Legend Double Dagger 24.5 15.6 57 15 19 24.1 99.54 29   LegendNANA
15:00 Legend Double Dagger 25.3 16.1 56 15 23 24.1 99.46 30   LegendNANA
16:00 Legend Double Dagger 24.0 15.9 60 15 16 24.1 99.47 29   Mostly Cloudy
17:00 Legend Double Dagger 26.3 17.0 56 24 24 24.1 99.46 32   LegendNANA
18:00 Legend Double Dagger 26.1 17.6 59 21 21 24.1 99.45 32   LegendNANA
19:00 Legend Double Dagger 25.1 17.2 61 22 19 24.1 99.44 31   Mostly Cloudy
20:00 Legend Double Dagger 23.9 17.3 66 22 21 24.1 99.46 29   LegendNANA
21:00 Legend Double Dagger 22.9 17.0 69 22 18 24.1 99.53 28   LegendNANA
22:00 Legend Double Dagger 22.5 16.9 70 22 18 24.1 99.54 28   Mainly Clear
23:00 Legend Double Dagger 22.2 17.0 72 24 18 24.1 99.56 27   LegendNANA

Notes on Data Quality.

Legend

  • E = Estimated
  • M = Missing
  • NA = Not Available
  • ‡ = Partner data that is not subject to review by the National Climate Archives
Date modified: